sat.trackr.live / text

‹ back to catalog

STARLINK-35049

NORAD 65444 · 2025-194L

PAYLOAD ACTIVE UNKNOWN

§ Identity

Operator
Country
US
Launch date
2025-09-03
Launch site
AFWTR
Launch vehicle
Mass (kg)
RCS (m²)

Purposes: comms

External: N2YO · Heavens-Above · Gunter

§ Orbital elements

Epoch: 2026-09-20T12:55:54.625152Z

Period
93.90 min
Inclination
97.2843°
Eccentricity
0.0001926
Mean motion
15.33469933 rev/d
Perigee alt
464.2 km
Apogee alt
466.8 km
Semi-major
6,843.6 km
B*
5.5250e-4
RAAN
113.1815°
Arg perigee
85.6617°
Mean anomaly
274.4846°
Rev number
5,907

§ Raw data

STARLINK-350491 65444U 25194L   26263.53882668  .00017818  00000+0  55250-3 0  99932 65444  97.2843 113.1815 0001926  85.6617 274.4846 15.33469933 59071

JSON: /api/v1/satellites/65444 · /tle

For live sub-satellite position, see the globe view (requires WebGL).

§ Visibility from observer

Set your observer location to see the next 7 days of passes ≥ 10°. The values pass through the URL so the page stays shareable.

No JS? Fill the form by hand. The geolocation button needs JavaScript.